GW4954 Weather Reports


time (UTC)temp
C
wind
direction
speed
KPH
gust
KPH
rain 1hr
cm
rain 24hr
cm
rain mn
cm
humidity
%
barometer
mb
20260504070408 8 12 0.0 3.2 0.00 0.00 0.00 67 1007.3
20260504050253 8 26 0.0 4.8 0.00 0.00 0.00 55 1007.6
20260504045745 8 1 0.0 0.0 0.00 0.00 0.00 55 1007.8
20260504045244 8 14 0.0 1.6 0.00 0.00 0.00 55 1007.8
20260504044742 7 17 0.0 3.2 0.00 0.00 0.00 55 1007.8
20260504044240 7 20 0.0 1.6 0.00 0.00 0.00 55 1008.0
20260504043737 7 12 0.0 1.6 0.00 0.00 0.00 54 1008.0
20260504043233 7 33 0.0 1.6 0.00 0.00 0.00 54 1008.1
20260504042731 7 23 0.0 0.0 0.00 0.00 0.00 53 1008.1
20260504042227 7 15 0.0 1.6 0.00 0.00 0.00 53 1008.1
20260504041724 7 23 0.0 1.6 0.00 0.00 0.00 52 1008.0
20260504041220 7 29 0.0 1.6 0.00 0.00 0.00 51 1008.0
20260504040716 8 44 1.6 3.2 0.00 0.00 0.00 51 1007.9
20260504040213 8 31 0.0 1.6 0.00 0.00 0.00 50 1008.0
20260504035709 8 26 0.0 6.4 0.00 0.00 0.00 50 1008.0
20260504035207 8 30 0.0 3.2 0.00 0.00 0.00 49 1007.9
20260504034704 8 48 1.6 3.2 0.00 0.00 0.00 49 1008.0
20260504034201 8 29 1.6 3.2 0.00 0.00 0.00 49 1008.1
20260504033659 8 23 0.0 1.6 0.00 0.00 0.00 49 1008.0
20260504033156 8 31 1.6 3.2 0.00 0.00 0.00 49 1008.0
20260504032653 8 22 0.0 3.2 0.00 0.00 0.00 49 1008.0
20260504032150 8 21 0.0 1.6 0.00 0.00 0.00 50 1008.1
20260504031647 8 33 1.6 3.2 0.00 0.00 0.00 50 1008.1
20260504031143 8 17 0.0 1.6 0.00 0.00 0.00 49 1008.2
20260504030640 9 18 0.0 4.8 0.00 0.00 0.00 48 1008.2
20260504030137 8 4 3.2 4.8 0.00 0.00 0.00 48 1008.3
20260504025634 9 24 0.0 1.6 0.00 0.00 0.00 48 1008.2
20260504025130 9 14 0.0 3.2 0.00 0.00 0.00 48 1008.3
20260504024628 9 28 1.6 3.2 0.00 0.00 0.00 48 1008.2
20260504024124 9 16 0.0 3.2 0.00 0.00 0.00 48 1008.4
20260504023621 9 10 0.0 1.6 0.00 0.00 0.00 47 1008.2
20260504023117 9 13 1.6 1.6 0.00 0.00 0.00 47 1008.5
20260504022613 9 23 0.0 3.2 0.00 0.00 0.00 47 1008.6
20260504022109 9 18 0.0 1.6 0.00 0.00 0.00 47 1008.6
20260504021608 9 17 0.0 3.2 0.00 0.00 0.00 47 1008.6
20260504021104 10 25 1.6 1.6 0.00 0.00 0.00 45 1008.6
20260504020601 10 23 3.2 4.8 0.00 0.00 0.00 45 1008.7
20260504020057 10 8 1.6 6.4 0.00 0.00 0.00 44 1008.6
20260504015554 10 23 0.0 1.6 0.00 0.00 0.00 44 1008.7
20260504015049 10 4 1.6 4.8 0.00 0.00 0.00 44 1008.8
20260504014546 10 34 0.0 4.8 0.00 0.00 0.00 44 1008.8
20260504014043 10 20 0.0 1.6 0.00 0.00 0.00 43 1008.8
20260504013541 10 10 0.0 3.2 0.00 0.00 0.00 43 1008.8
20260504013038 10 351 1.6 1.6 0.00 0.00 0.00 43 1008.7
20260504012535 10 18 0.0 3.2 0.00 0.00 0.00 42 1008.8
20260504012033 10 39 0.0 3.2 0.00 0.00 0.00 42 1008.6
20260504011529 10 78 3.2 9.7 0.00 0.00 0.00 41 1008.7
20260504011026 10 24 1.6 4.8 0.00 0.00 0.00 41 1008.7
20260504010521 10 79 1.6 3.2 0.00 0.00 0.00 42 1008.7
20260504010017 10 17 0.0 1.6 0.00 0.00 0.00 41 1008.7
20260504005514 11 20 0.0 0.0 0.00 0.00 0.00 41 1008.6
20260504005012 11 23 0.0 3.2 0.00 0.00 0.00 41 1008.6
20260504004509 11 22 0.0 3.2 0.00 0.00 0.00 40 1008.6
20260504004006 11 14 1.6 4.8 0.00 0.00 0.00 40 1008.4
20260504003502 11 15 0.0 1.6 0.00 0.00 0.00 40 1008.4
20260504002959 11 24 3.2 4.8 0.00 0.00 0.00 39 1008.4
20260504002456 11 14 0.0 6.4 0.00 0.00 0.00 39 1008.5
20260504001953 11 6 0.0 4.8 0.00 0.00 0.00 38 1008.3
20260504001451 11 168 4.8 9.7 0.00 0.00 0.00 38 1008.3
20260504000947 11 145 3.2 6.4 0.00 0.00 0.00 37 1008.3
20260504000444 11 44 3.2 4.8 0.00 0.00 0.00 35 1008.3
20260503235942 11 188 3.2 6.4 0.00 0.00 0.00 34 1008.2
20260503235439 11 27 1.6 9.7 0.00 0.00 0.00 33 1008.2
20260503234936 11 110 3.2 4.8 0.00 0.00 0.00 33 1008.2
20260503234434 11 35 0.0 3.2 0.00 0.00 0.00 34 1008.2
20260503233932 11 20 0.0 1.6 0.00 0.00 0.00 33 1008.2
20260503233428 12 14 0.0 3.2 0.00 0.00 0.00 33 1008.1
20260503232925 12 43 0.0 6.4 0.00 0.00 0.00 32 1008.2
20260503232422 12 35 4.8 6.4 0.00 0.00 0.00 32 1008.3
20260503231920 12 150 3.2 9.7 0.00 0.00 0.00 32 1008.3
20260503231417 12 62 1.6 4.8 0.00 0.00 0.00 32 1008.3
20260503230913 12 350 6.4 17.7 0.00 0.00 0.00 32 1008.1
20260503230409 12 22 1.6 6.4 0.00 0.00 0.00 32 1008.4
20260503225908 12 46 0.0 1.6 0.00 0.00 0.00 32 1008.4
20260503225403 12 99 1.6 3.2 0.00 0.00 0.00 32 1008.3
20260503224859 12 126 3.2 3.2 0.00 0.00 0.00 31 1008.2
20260503224357 13 30 1.6 1.6 0.00 0.00 0.00 30 1008.4
20260503223854 13 14 1.6 4.8 0.00 0.00 0.00 30 1008.1
20260503223352 13 21 0.0 11.3 0.00 0.00 0.00 31 1008.3
20260503222847 13 326 3.2 4.8 0.00 0.00 0.00 30 1008.3
20260503222346 13 18 1.6 1.6 0.00 0.00 0.00 30 1008.1
20260503221844 13 166 1.6 1.6 0.00 0.00 0.00 30 1008.3
20260503221342 13 7 1.6 6.4 0.00 0.00 0.00 30 1008.2
20260503220838 13 153 6.4 16.1 0.00 0.00 0.00 30 1008.1
20260503220335 13 7 0.0 3.2 0.00 0.00 0.00 30 1008.1
20260503215832 13 32 1.6 1.6 0.00 0.00 0.00 30 1008.3
20260503215329 13 54 3.2 6.4 0.00 0.00 0.00 29 1008.3
20260503214827 13 20 0.0 3.2 0.00 0.00 0.00 30 1008.1
20260503214324 13 258 1.6 9.7 0.00 0.00 0.00 31 1008.3
20260503213821 13 7 1.6 3.2 0.00 0.00 0.00 32 1008.3
20260503213319 13 29 0.0 6.4 0.00 0.00 0.00 31 1008.0
20260503212815 13 69 3.2 4.8 0.00 0.00 0.00 31 1008.2
20260503212308 12 358 1.6 6.4 0.00 0.00 0.00 33 1008.2
20260503211805 12 36 1.6 9.7 0.00 0.00 0.00 33 1008.3
20260503211302 12 30 1.6 4.8 0.00 0.00 0.00 33 1008.2
20260503210802 12 46 0.0 3.2 0.00 0.00 0.00 33 1008.3
20260503210259 12 338 1.6 4.8 0.00 0.00 0.00 34 1008.2
20260503205754 12 30 3.2 4.8 0.00 0.00 0.00 34 1008.3
20260503205251 12 0 1.6 1.6 0.00 0.00 0.00 33 1008.4
20260503204748 12 51 6.4 9.7 0.00 0.00 0.00 33 1008.3
20260503204245 12 25 1.6 6.4 0.00 0.00 0.00 32 1008.5
20260503203742 12 33 3.2 9.7 0.00 0.00 0.00 32 1008.5
20260503203240 12 175 1.6 3.2 0.00 0.00 0.00 33 1008.3
20260503202737 12 55 1.6 6.4 0.00 0.00 0.00 33 1008.3
20260503202235 12 39 3.2 4.8 0.00 0.00 0.00 34 1008.5
20260503201732 12 15 1.6 3.2 0.00 0.00 0.00 33 1008.6
20260503201229 12 49 3.2 11.3 0.00 0.00 0.00 34 1008.6
20260503200726 12 15 6.4 12.9 0.00 0.00 0.00 35 1008.7
20260503200222 12 0 4.8 9.7 0.00 0.00 0.00 34 1008.7
20260503195719 12 32 1.6 6.4 0.00 0.00 0.00 33 1008.9
20260503195216 12 107 3.2 9.7 0.00 0.00 0.00 34 1008.8
20260503194713 12 59 1.6 4.8 0.00 0.00 0.00 35 1008.9
20260503194209 12 57 1.6 3.2 0.00 0.00 0.00 34 1008.9
20260503193705 12 19 1.6 4.8 0.00 0.00 0.00 34 1009.0
20260503193201 13 61 1.6 4.8 0.00 0.00 0.00 32 1008.9
20260503192657 12 29 1.6 3.2 0.00 0.00 0.00 34 1009.3
20260503192152 12 76 1.6 4.8 0.00 0.00 0.00 34 1009.2
20260503191650 12 185 1.6 12.9 0.00 0.00 0.00 35 1009.2
20260503191147 13 340 3.2 4.8 0.00 0.00 0.00 33 1009.1
20260503190643 12 31 0.0 3.2 0.00 0.00 0.00 33 1009.4
20260503190140 11 302 1.6 12.9 0.00 0.00 0.00 35 1009.4
20260503185636 11 41 3.2 4.8 0.00 0.00 0.00 36 1009.3
20260503185131 11 61 1.6 3.2 0.00 0.00 0.00 36 1009.5
20260503184627 11 30 1.6 11.3 0.00 0.00 0.00 36 1009.5
20260503184124 11 348 3.2 4.8 0.00 0.00 0.00 37 1009.6
20260503183620 11 331 6.4 12.9 0.00 0.00 0.00 37 1009.7
20260503183118 11 21 1.6 1.6 0.00 0.00 0.00 38 1009.9
20260503182616 12 115 3.2 9.7 0.00 0.00 0.00 36 1009.8
20260503182114 12 31 3.2 3.2 0.00 0.00 0.00 36 1009.8
20260503181611 12 337 1.6 1.6 0.00 0.00 0.00 36 1009.9
20260503181107 11 344 1.6 1.6 0.00 0.00 0.00 38 1010.0
20260503180604 11 11 0.0 1.6 0.00 0.00 0.00 39 1010.0
20260503175559 12 21 0.0 3.2 0.00 0.00 0.00 38 1010.3
20260503175056 11 63 4.8 6.4 0.00 0.00 0.00 40 1010.1
20260503174553 11 63 4.8 6.4 0.00 0.00 0.00 40 1010.0
20260503174050 10 126 6.4 11.3 0.00 0.00 0.00 42 1010.2
20260503173544 10 35 1.6 1.6 0.00 0.00 0.00 41 1010.4
20260503173041 10 146 3.2 4.8 0.00 0.00 0.00 42 1010.5
20260503172538 10 87 3.2 3.2 0.00 0.00 0.00 43 1010.4
20260503172035 11 23 3.2 4.8 0.00 0.00 0.00 42 1010.3
20260503171532 11 30 3.2 3.2 0.00 0.00 0.00 42 1010.5
20260503171029 10 34 1.6 4.8 0.00 0.00 0.00 42 1010.6
20260503170525 11 19 1.6 4.8 0.00 0.00 0.00 42 1010.6
20260503150918 9 358 4.8 6.4 0.00 0.00 0.00 43 1012.2
20260503150414 9 11 1.6 6.4 0.00 0.00 0.00 45 1012.2
20260503131308 7 22 0.0 1.6 0.00 0.00 0.00 54 1013.3
20260503130805 7 13 0.0 0.0 0.00 0.00 0.00 55 1013.1
20260503130302 7 8 0.0 1.6 0.00 0.00 0.00 55 1013.2
20260503110656 3 12 0.0 0.0 0.00 0.00 0.00 78 1013.1
20260503110153 3 12 0.0 0.0 0.00 0.00 0.00 78 1013.0
20260503100120 -17 0.0 0.0 0.00 0.00 0.00 1012.8
20260503081509 -17 0.0 0.0 0.00 0.00 0.00 1012.9
20260503081006 -17 0.0 0.0 0.00 0.00 0.00 1013.0
20260503080502 -17 0.0 0.0 0.00 0.00 0.00 1012.9
20260503072939 -17 0.0 0.0 0.00 0.00 0.00 1013.1